RH
13 13 17 20 26 23 25 27 29 39 36 33 27 23 30 32 32 36 36 36 30 28 28 28 30 30 30 29 28 27 25 22 20 19 18 17 16 16 15 14 14 14 13 12 10 10 12 12 12
13 16 21 27 26 30 30 31 30 40 46 45 32 32 36 42 33 40 39 37 30 29 28 29 30 30 31 31 29 27 26 24 22 20 18 17 17 17 16 16 17 19 20 18 20 18 14 12 12
17 20 29 28 30 27 32 39 41 45 49 44 35 34 30 38 35 35 33 32 31 30 30 30 30 30 31 32 31 29 28 25 23 21 21 20 19 18 17 17 18 19 22 26 25 27 29 26 22
25 25 27 33 32 32 39 49 47 49 46 42 35 31 37 35 38 36 34 33 34 31 30 30 29 30 32 33 33 32 31 28 28 26 26 25 23 21 20 21 21 20 21 26 32 37 36 34 30
31 30 31 28 27 27 35 36 46 46 44 42 39 36 37 42 41 36 37 34 35 36 32 32 30 31 32 35 36 36 34 33 30 28 28 26 26 25 24 25 25 26 23 24 31 41 44 36 42
34 34 37 34 32 31 28 31 36 41 44 41 42 41 35 41 42 38 42 36 36 40 38 34 33 32 33 36 37 37 36 33 31 30 30 29 28 27 28 29 29 31 24 25 28 32 30 27 33
37 40 37 36 35 33 31 37 38 35 38 39 38 42 39 45 47 45 49 39 38 41 43 36 39 36 35 37 38 37 36 33 32 30 30 31 32 30 31 31 32 28 22 28 29 30 33 31 27
40 41 41 40 38 36 32 33 37 38 37 40 40 42 44 43 44 41 39 42 44 52 52 51 42 44 40 37 38 37 36 33 33 30 32 34 35 33 33 35 35 32 28 33 37 35 35 35 31
43 42 41 38 37 34 37 39 39 37 39 41 43 41 39 34 33 40 45 41 39 43 50 53 50 44 44 38 38 38 38 34 31 31 35 38 38 36 36 36 30 31 27 32 41 43 41 39 35
48 43 39 38 38 40 41 41 43 44 44 42 40 40 36 39 45 45 49 43 41 37 43 50 53 44 40 44 41 39 40 34 31 31 37 39 40 41 43 39 33 32 29 34 40 47 49 47 44
49 40 40 41 44 44 45 44 45 45 46 45 47 44 45 43 43 43 44 40 37 37 36 43 52 44 43 42 46 46 44 36 33 34 37 41 43 45 46 39 35 34 32 36 46 55 54 58 57
46 44 44 42 45 46 45 46 44 44 45 47 44 44 45 40 43 42 39 39 38 36 35 35 42 46 43 43 47 45 48 45 37 36 44 51 52 45 42 41 40 38 34 37 47 63 61 63 68
42 40 43 44 45 43 42 42 42 39 40 41 47 46 45 46 46 44 40 39 36 35 34 34 37 42 41 43 48 47 47 48 44 47 51 57 51 41 42 42 44 40 36 40 52 68 71 74 74
42 43 42 41 41 40 41 40 40 36 41 42 40 40 41 45 46 45 42 36 35 35 32 32 33 39 39 41 48 52 49 53 52 55 52 62 59 43 45 45 46 39 34 38 50 68 73 78 80
45 47 45 41 43 41 44 39 39 34 32 34 38 38 39 41 43 42 37 34 35 35 31 30 32 35 38 41 49 55 53 58 58 54 59 60 52 50 46 47 50 42 38 45 59 75 78 79 82
46 47 42 37 44 35 45 41 35 33 35 35 37 38 38 41 39 39 34 33 37 35 31 31 32 35 34 39 50 55 55 61 61 57 60 59 54 50 46 47 47 40 39 52 61 73 77 79 79
36 36 34 31 32 38 46 43 27 33 38 36 37 37 37 37 36 37 35 31 35 33 30 31 35 36 35 40 50 55 59 55 60 60 61 52 53 50 46 46 42 39 49 61 69 84 86 82 85
28 30 23 29 31 39 44 41 30 34 42 39 40 37 33 30 32 35 31 30 35 32 32 33 37 38 38 42 46 49 52 60 63 61 56 54 53 51 51 44 36 43 60 63 83 87 81 79 86
28 28 30 32 34 37 43 38 28 33 39 37 42 37 31 32 36 40 33 31 34 34 33 35 35 38 40 40 43 55 60 58 55 51 51 52 53 53 44 35 43 60 67 78 84 86 85 87 90
20 25 28 29 34 36 40 39 33 33 33 37 35 34 35 34 34 39 35 37 34 35 34 37 37 39 41 44 49 54 53 49 48 50 51 50 49 37 34 41 61 71 81 87 88 74 66 75 80
19 17 20 22 30 29 34 39 31 28 32 35 32 32 31 31 30 32 36 40 37 37 38 38 40 40 42 48 47 47 45 47 48 51 49 45 38 37 50 71 78 84 86 74 69 65 70 72 75
19 16 20 21 25 23 32 34 24 25 29 28 31 30 29 30 33 37 43 42 38 40 42 42 41 40 41 43 46 41 42 45 46 46 44 40 42 60 72 78 79 72 64 69 76 81 79 84 79
15 23 21 22 23 27 29 31 15 24 25 29 27 25 27 31 38 40 45 43 42 44 42 41 40 37 43 44 42 38 40 43 46 42 40 43 63 73 77 71 70 62 69 74 77 76 77 70 75
24 22 25 24 24 35 21 28 17 20 24 26 24 27 30 35 38 42 43 43 47 45 42 39 37 43 45 39 38 36 37 39 35 36 43 59 68 74 68 70 62 67 67 64 63 64 61 76 77
25 30 30 31 28 22 19 25 19 19 22 22 24 31 35 37 40 43 42 47 48 43 42 38 41 44 37 35 34 33 32 26 28 41 54 63 66 58 71 63 64 63 60 58 63 62 69 85 86
25 29 29 29 24 20 17 23 16 21 24 30 28 31 30 37 38 41 44 46 42 43 41 44 44 37 34 31 27 28 25 32 43 51 62 65 58 58 63 57 65 58 58 63 66 72 78 80 84
33 34 22 29 24 23 20 24 20 28 26 31 31 26 29 39 41 40 45 42 39 44 48 45 39 35 30 28 30 29 30 40 49 54 58 66 50 56 57 67 63 60 64 68 71 79 82 83 84
39 30 29 31 32 31 21 23 23 36 33 29 26 23 32 39 42 42 40 38 42 47 48 44 39 33 28 29 27 32 31 40 50 56 69 62 50 62 58 65 65 66 66 69 79 85 84 80 83
38 34 35 30 31 29 32 27 27 34 33 27 24 23 30 36 44 41 38 43 47 48 48 40 36 27 25 30 30 35 40 53 54 71 69 61 47 57 62 70 68 69 71 80 83 84 86 88 87
40 36 37 35 32 28 29 24 30 30 31 29 28 25 29 38 38 39 43 47 48 46 41 37 27 24 26 30 33 34 49 59 75 72 66 61 51 58 61 68 67 70 74 71 75 87 88 90 89